Flag for Denmark Weather past 2 weeks in Odense, Denmark

Now
27 °F

Chilly.


Feels Like: 21 °F
Forecast: 30 / 32 °F
Wind: 5 mph from Northwest

Location: Vamdrup

Current Time: Feb 2, 2015 at 2:09:54 AM

Latest Report: Feb 2, 2015 at 1:20 AM


Visibility: N/A

Pressure: 29.21 "Hg

Humidity: 93%

Dew point: 25 °F

Location of OdenseLocation

Historic Weather in Odense — Graph

°F

Odense temperature yesterday

Maximum temperature yesterday: 36 °F (at 1:50 PM)
Minimum temperature yesterday: 25 °F (at 12:20 AM)
Average temperature yesterday: 30 °F

Past Weeks' High & Low Weather Summary

 TemperatureHumidityPressure
High43 °F (Jan 26, 3:50 PM)100% (Jan 18, 2:20 AM)30.27 "Hg (Jan 18, 2:20 AM)
Low23 °F (Jan 31, 5:20 AM)75% (Jan 22, 1:50 PM)28.71 "Hg (Jan 29, 6:20 PM)
Average33 °F94%29.66 "Hg
* Reported Jan 18 12:20 AM — Feb 2 12:50 AM, Odense, Weather by CustomWeather, © 2014

Note: Actual official high and low records may vary slightly from our data, if they occured in-between our weather recording intervals... More about our weather records

Advertising

Odense weather history for previous 24 hours

 ConditionsComfort  
Time TempWeatherWind HumidityBarometerVisibility
12:50 AM
Feb 2
28 °FChilly.6 mph86%29.18 "HgN/A
12:20 AM27 °FChilly.6 mph93%29.18 "HgN/A
11:50 PM
Feb 1
27 °FChilly.7 mph93%29.18 "HgN/A
11:20 PM27 °FChilly.6 mph93%29.18 "HgN/A
10:50 PM27 °FChilly.6 mph93%29.18 "HgN/A
10:20 PM28 °FChilly.7 mph86%29.18 "HgN/A
9:50 PM28 °FChilly.7 mph93%29.15 "HgN/A
9:20 PM28 °FChilly.7 mph93%29.15 "HgN/A
8:50 PM28 °FChilly.7 mph93%29.15 "HgN/A
8:20 PM30 °FChilly.6 mph86%29.15 "HgN/A
7:50 PM28 °FChilly.7 mph93%29.15 "HgN/A
7:20 PM30 °FChilly.6 mph86%29.15 "HgN/A
6:50 PM30 °FChilly.6 mph86%29.12 "HgN/A
6:20 PM32 °FChilly.6 mph87%29.12 "HgN/A
5:50 PM32 °FChilly.6 mph87%29.12 "HgN/A
5:20 PM32 °FChilly.6 mph87%29.12 "HgN/A
4:50 PM34 °FChilly.7 mph87%29.09 "HgN/A
4:20 PM36 °FChilly.8 mph81%29.09 "HgN/A
3:50 PM36 °FSunny.7 mph87%29.09 "Hg10 mi
2:50 PM36 °FSunny.7 mph93%29.09 "Hg10 mi
1:50 PM36 °FSunny.8 mph93%29.06 "Hg10 mi
1:20 PM34 °FBroken clouds.9 mph100%29.06 "HgN/A
12:50 PM34 °FPartly sunny.10 mph100%29.06 "Hg6 mi
12:20 PM34 °FScattered showers. Partly sunny.12 mph100%29.06 "Hg4 mi
11:50 AM32 °FSnow showers. Ice fog.12 mph100%29.06 "Hg2 mi
11:20 AM32 °FSnow flurries. Ice fog.12 mph100%29.06 "Hg1 mi
10:50 AM34 °FFog.10 mph93%29.06 "Hg3 mi
10:20 AM32 °FIce fog.12 mph100%29.06 "Hg2 mi
9:50 AM32 °FSnow flurries. Broken clouds.9 mph100%29.06 "Hg2 mi
9:20 AM32 °FSnow flurries. Partly sunny.8 mph100%29.06 "Hg2 mi
8:50 AM32 °FSnow flurries. Broken clouds.8 mph100%29.06 "Hg1 mi
8:20 AM30 °FSnow flurries. Partly sunny.8 mph100%29.06 "Hg1 mi
7:50 AM30 °FChilly.8 mph100%29.06 "HgN/A
7:20 AM28 °FChilly.6 mph100%29.06 "HgN/A
6:50 AM28 °FChilly.5 mph93%29.06 "HgN/A
6:20 AM27 °FChilly.6 mph100%29.06 "HgN/A
5:50 AM28 °FChilly.7 mph93%29.03 "HgN/A
5:20 AM27 °FChilly.5 mph100%29.03 "HgN/A
4:50 AM27 °FChilly.5 mph93%29.03 "HgN/A
4:20 AM27 °FChilly.6 mph100%29.03 "HgN/A
3:50 AM27 °FChilly.5 mph93%29.03 "HgN/A
3:20 AM25 °FCold.5 mph100%29.03 "HgN/A
2:50 AM25 °FCold.3 mph100%29.03 "HgN/A
2:20 AM25 °FCold.3 mph100%29.03 "HgN/A
Weather by CustomWeather, © 2014

See weather overviewHow to use our weather pages